OK1ALX-6 Weather Reports


Display with metric or nautical units.
time (UTC)temp
F
wind
direction
speed
MPH
gust
MPH
rain 1hr
in
rain 24hr
in
rain mn
in
humidity
%
barometer
mb
20260504232003 56 0 0.0 0.0 0.00 0.00 0.00 69 1016.5
20260504231003 56 0 0.0 0.0 0.00 0.00 0.00 75 1016.2
20260504230003 56 0 0.0 0.0 0.00 0.00 0.00 77 1016.3
20260504225003 55 0 0.0 0.0 0.00 0.00 0.00 79 1016.7
20260504224003 55 0 0.0 0.0 0.00 0.00 0.00 78 1016.5
20260504223003 57 0 0.0 0.0 0.00 0.00 0.00 75 1016.6
20260504222003 55 0 0.0 0.0 0.00 0.00 0.00 78 1016.4
20260504221003 55 325 0.0 2.0 0.00 0.00 0.00 79 1016.6
20260504215003 55 0 0.0 0.0 0.00 0.00 0.00 80 1016.9
20260504214003 55 0 0.0 0.0 0.00 0.00 0.00 80 1017.0
20260504213003 55 0 0.0 0.0 0.00 0.00 0.00 80 1016.8
20260504212003 55 325 0.0 1.0 0.00 0.00 0.00 80 1017.0
20260504211003 56 325 1.0 2.0 0.00 0.00 0.00 79 1017.1
20260504210004 56 0 0.0 0.0 0.00 0.00 0.00 78 1017.2
20260504205003 57 0 0.0 0.0 0.00 0.00 0.00 77 1017.1
20260504204003 57 0 0.0 0.0 0.00 0.00 0.00 76 1017.2
20260504203003 58 0 0.0 0.0 0.00 0.00 0.00 75 1017.1
20260504202003 58 0 0.0 0.0 0.00 0.00 0.00 75 1017.0
20260504201003 58 0 0.0 0.0 0.00 0.00 0.00 74 1017.0
20260504200011 59 0 0.0 0.0 0.00 0.00 0.00 74 1016.9
20260504195003 60 325 0.0 1.0 0.00 0.00 0.00 72 1016.9
20260504194003 61 325 0.0 2.0 0.00 0.00 0.00 70 1016.7
20260504193008 62 352 0.0 1.0 0.00 0.00 0.00 66 1016.5
20260504192003 63 352 0.0 1.0 0.00 0.00 0.00 62 1016.4
20260504191003 63 352 0.0 1.0 0.00 0.00 0.00 64 1016.5
20260504190003 65 0 0.0 0.0 0.00 0.00 0.00 62 1016.4
20260504185003 65 0 0.0 0.0 0.00 0.00 0.00 60 1016.4
20260504184003 65 0 0.0 0.0 0.00 0.00 0.00 61 1016.2
20260504183003 66 0 0.0 0.0 0.00 0.00 0.00 61 1015.9
20260504182003 67 0 0.0 0.0 0.00 0.00 0.00 58 1016.0
20260504181003 68 0 0.0 0.0 0.00 0.00 0.00 57 1015.8
20260504180003 71 0 0.0 0.0 0.00 0.00 0.00 53 1015.6
20260504175003 72 0 0.0 0.0 0.00 0.00 0.00 47 1015.6
20260504174003 72 0 0.0 0.0 0.00 0.00 0.00 47 1015.5
20260504173003 73 0 0.0 0.0 0.00 0.00 0.00 47 1015.4
20260504172003 73 351 0.0 2.0 0.00 0.00 0.00 46 1015.4
20260504171003 73 351 1.0 2.0 0.00 0.00 0.00 45 1015.5
20260504151003 74 346 3.0 6.0 0.00 0.00 0.00 43 1016.0
20260504141003 76 7 2.0 4.0 0.00 0.00 0.00 39 1016.1
20260504082006 62 148 2.0 7.0 0.00 0.00 0.00 56 1019.7
20260504081003 62 121 3.0 7.0 0.00 0.00 0.00 55 1019.6
20260504050003 55 156 1.0 2.0 0.00 0.00 0.00 61 1019.8
20260504045003 54 147 1.0 3.0 0.00 0.00 0.00 61 1019.7
20260504044003 55 151 2.0 6.0 0.00 0.00 0.00 60 1019.6
20260504043003 54 155 1.0 4.0 0.00 0.00 0.00 60 1019.7
20260504042003 54 125 1.0 2.0 0.00 0.00 0.00 62 1019.9
20260504041004 54 140 1.0 2.0 0.00 0.00 0.00 62 1019.5
20260504040003 53 170 0.0 2.0 0.00 0.00 0.00 63 1019.7
20260504035003 53 170 1.0 2.0 0.00 0.00 0.00 63 1019.6
20260504034003 54 170 1.0 2.0 0.00 0.00 0.00 63 1019.5
20260504033003 55 170 0.0 3.0 0.00 0.00 0.00 59 1019.3
20260504032003 56 171 1.0 2.0 0.00 0.00 0.00 57 1019.3
20260504031003 56 26 1.0 3.0 0.00 0.00 0.00 55 1019.2
20260504030003 54 26 1.0 3.0 0.00 0.00 0.00 59 1019.3
20260504025003 54 27 1.0 2.0 0.00 0.00 0.00 59 1019.3
20260504024003 56 124 1.0 3.0 0.00 0.00 0.00 57 1018.9
20260504023003 58 141 2.0 6.0 0.00 0.00 0.00 53 1018.9
20260504022003 57 197 1.0 3.0 0.00 0.00 0.00 53 1018.8
20260504021003 57 214 1.0 3.0 0.00 0.00 0.00 54 1019.1
20260504020003 58 132 3.0 6.0 0.00 0.00 0.00 53 1018.7
20260504015003 58 133 0.0 4.0 0.00 0.00 0.00 52 1018.7
20260504014003 58 115 1.0 4.0 0.00 0.00 0.00 52 1018.5
20260504013003 58 120 4.0 9.0 0.00 0.00 0.00 52 1018.2
20260504011003 59 141 6.0 11.0 0.00 0.00 0.00 51 1017.7
20260504010003 59 140 6.0 13.0 0.00 0.00 0.00 51 1017.9
20260504005011 59 140 7.0 15.0 0.00 0.00 0.00 51 1017.9
20260504004003 60 126 8.0 15.0 0.00 0.00 0.00 50 1017.8
20260504003003 60 143 8.0 13.0 0.00 0.00 0.00 50 1017.9
20260504002003 60 151 7.0 16.0 0.00 0.00 0.00 49 1017.8
20260504000003 60 143 7.0 16.0 0.00 0.00 0.00 49 1017.8
20260503235003 61 138 9.0 17.0 0.00 0.00 0.00 49 1017.7
20260503234006 61 138 8.0 14.0 0.00 0.00 0.00 48 1017.8
20260503233003 61 142 7.0 14.0 0.00 0.00 0.00 48 1017.7